Regional Weather Roundup
Issued by NWS

Home | Current Version | Previous Version | Text Only | Print | Product List | Glossary Off
Versions: 1 2 3 4 5 6 7 8 9 10 11 12 13 14 15 16 17 18 19 20 21 22 23 24 25 26 27 28 29 30 31 32 33 34 35 36 37 38 39 40 41 42 43 44 45 46 47 48 49 50

000
ASUS43 KFSD 230210
RWRSD

WEATHER ROUNDUP FOR SOUTH DAKOTA
NATIONAL WEATHER SERVICE SIOUX FALLS SD
900 PM CDT SUN OCT 22 2017

NOTE: "FAIR" INDICATES FEW OR NO CLOUDS BELOW 12,000 FEET WITH NO
SIGNIFICANT WEATHER AND/OR OBSTRUCTIONS TO VISIBILITY.


SDZ001>005-009-010-012>017-230300-
NORTHWEST AND NORTH CENTRAL SOUTH DAKOTA

CITY           SKY/WX    TMP DP  RH WIND       PRES   REMARKS
BUFFALO          N/A     49  44  83 NW13      29.78R
MOBRIDGE       MOCLDY    61  42  49 W12       29.76R
$$

SDZ012>016-024>037-041>051-057-063-072>074-230300-
SOUTHWEST AND SOUTH CENTRAL SOUTH DAKOTA

CITY           SKY/WX    TMP DP  RH WIND       PRES   REMARKS
RAPID CTY ARPT PTCLDY    54  30  40 W7        29.86R
PIERRE         CLEAR     58  34  40 SW8       29.77F
CUSTER         CLOUDY    51  26  37 W6        29.96S
ELLSWORTH AFB  MOCLDY    54  29  38 W12       29.86R
PHILIP         CLEAR     52  33  48 W3        29.80R
PINE RIDGE     CLOUDY    56  32  40 S5        29.92R
SPEARFISH      MOCLDY    61  27  27 NW25G40   29.92R
WINNER         FAIR      58  34  40 S10       29.82F
$$

SDZ004>011-016>023-039-040-230300-
NORTHEAST SOUTH DAKOTA

CITY           SKY/WX    TMP DP  RH WIND       PRES   REMARKS
ABERDEEN       CLOUDY    59  32  36 S10       29.75F
WATERTOWN      CLOUDY    54  38  54 S9        29.81F
BROOKINGS      PTCLDY    54  32  43 S10       29.85F
SISSETON         N/A     60  32  34 SW7       29.75F
$$

SDZ017-020-022-023-036>040-048>070-230300-
SOUTHEAST SOUTH DAKOTA

CITY           SKY/WX    TMP DP  RH WIND       PRES   REMARKS
SIOUX FALLS    CLEAR     55  32  41 S9        29.87F
HURON          CLOUDY    58  34  40 S10       29.81S
CHAMBERLAIN    CLEAR     50  35  55 S7        29.83S
MITCHELL       CLOUDY    58  33  39 S8        29.84S
YANKTON        CLEAR     57  31  37 S7        29.89F
$$

ABBREVIATIONS USED IN REMARKS
   TC - TEMPERATURE IN CELSIUS
  WCI - WIND CHILL INDEX
   HX - HEAT INDEX
  VSB - VISIBILITY





USA.gov is the U.S. government's official web portal to all federal, state and local government web resources and services.